• MPC Preparation (Info)

  • MPEC 2015-B152: 2015 BD511

    The following Minor Planet Electronic Circular may be linked-to from your own Web pages, but must not otherwise be redistributed electronically.

    A form allowing access to any MPEC is at the bottom of this page.


    Read MPEC 2015-B151 Read MPEC 2015-B153


    M.P.E.C. 2015-B152                               Issued 2015 Jan. 28, 14:57 UT
    
         The Minor Planet Electronic Circulars contain information on unusual
             minor planets and routine data on comets.  They are published
       on behalf of Commission 20 of the International Astronomical Union by the
              Minor Planet Center, Smithsonian Astrophysical Observatory,
                              Cambridge, MA 02138, U.S.A.
    
                 Prepared using the Tamkin Foundation Computer Network
    
                                  MPC@CFA.HARVARD.EDU
                URL https://www.minorplanetcenter.net/    ISSN 1523-6714
    
                                      2015 BD511
    
    Observations:
         K15Bp1D* C2015 01 26.50665 08 46 48.162+15 31 38.67         20.6 wLEB152F51
         K15Bp1D  C2015 01 26.52038 08 46 47.104+15 35 13.90         20.6 wLEB152F51
         K15Bp1D  C2015 01 26.53424 08 46 46.068+15 38 53.13         20.7 wLEB152F51
         K15Bp1D  C2015 01 26.54796 08 46 45.087+15 42 30.68         20.5 wLEB152F51
         K15Bp1D KC2015 01 27.02726 08 46 55.99 +18 08 00.9                qEB152J95
         K15Bp1D KC2015 01 27.03190 08 46 55.73 +18 09 38.2                qEB152J95
         K15Bp1D KC2015 01 27.04110 08 46 55.18 +18 12 53.9          20.1 RqEB152J95
         K15Bp1D KC2015 01 28.45806 08 46 57.83 +32 27 31.9          18.5 RoEB152291
         K15Bp1D KC2015 01 28.45856 08 46 57.78 +32 28 01.8          18.6 RoEB152291
         K15Bp1D KC2015 01 28.45912 08 46 57.72 +32 28 34.9                oEB152291
    
    Observer details:
    291 LPL/Spacewatch II.  Observer R. S. McMillan.  1.8-m f/2.7 reflector + CCD.
    F51 Pan-STARRS 1, Haleakala.  Observers B. Gibson, T. Goggia, N. Primak,
        A. Schultz, M. Willman.  Measurers K. Chambers, S. Chastel, L. Denneau,
        H. Flewelling, M. Huber, E. Magnier, E. Schunova, R. Wainscoat, C. Waters,
        R. Weryk.  1.8-m Ritchey-Chretien + CCD.
    J95 Great Shefford.  Observer P. Birtwhistle.  0.40-m f/6.0 Schmidt-Cassegrain
        + CCD.
    
    Orbital elements:
    2015 BD511                                               Earth MOID = 0.0112 AU
    Epoch 2014 Dec. 9.0 TT = JDT 2457000.5                  MPC
    M 302.18521              (2000.0)            P               Q
    n   0.56056519     Peri.   96.94080     -0.70713957     +0.68663090
    a   1.4567509      Node   126.59434     -0.70284118     -0.65650185
    e   0.5912912      Incl.   12.13626     -0.07725218     -0.31231926
    P   1.76           H   27.0           G   0.15           U   7
    Residuals in seconds of arc
    150126 F51  0.1+  0.1+    150127 J95  0.3-  0.0     150128 291  0.0   0.1+
    150126 F51  0.1+  0.2-    150127 J95  0.1+  0.5-    150128 291  0.0   0.0
    150126 F51  0.0   0.2+    150127 J95  0.2+  0.5+
    150126 F51  0.1-  0.0     150128 291  0.0   0.1-
    
    Ephemeris:
    2015 BD511               a,e,i = 1.46, 0.59, 12                  q = 0.5954
    Date    TT    R. A. (2000) Decl.     Delta      r     Elong.  Phase     V
    2014 12 29    08 40 37.7 +03 00 19   0.3811  1.3067   142.6    27.2    26.7
    ...
    2015 01 13    08 45 34.1 +03 13 29   0.1944  1.1627   155.1    20.9    24.8
    ...
    2015 01 21    08 46 33.6 +05 50 42   0.1019  1.0821   163.3    15.2    23.1
    ...
    2015 01 27    08 46 56.2 +18 00 30   0.03567 1.0203   177.2     2.7    20.1
    2015 01 28    08 47 08.2 +26 08 08   0.02537 1.0099   172.1     7.7    19.6
    2015 01 29    08 47 44.2 +44 12 33   0.01624 0.9995   153.9    25.7    19.2
    ...
    2015 02 04    20 46 14.3 +12 20 01   0.05649 0.9368    29.3   149.0    28.9
    ...
    2015 02 12    20 47 07.7 +04 38 04   0.1467  0.8537    22.8   153.4    31.6
    ...
    2015 02 27    20 54 55.6 +00 25 41   0.3348  0.7093    27.2   140.3    30.8
    
    A. U. Tomatic                (C) Copyright 2015 MPC           M.P.E.C. 2015-B152
    

    Read MPEC 2015-B151 Read MPEC 2015-B153


    MPEC number:

    Enter an MPEC number in one of the following forms:

    • 1997-B01 (the full form)
    • J97B01 (the packed version of the full form)
    • B01 (the abbreviated form)